Home   Weather   Wichita   Past weeks
Flag for USA

Past Weather in Wichita, Kansas, USA — Yesterday and Last 2 Weeks

Now
82 °F

Clear.


Feels Like: 85 °F
Forecast: 95 / 76 °F
Wind: 13 mph from South

Location: Wichita Mid-Continent Airport

Current Time: Jul 21, 2019 at 1:43:04 am

Latest Report: Jul 21, 2019 at 12:53 am


Visibility: 10 mi

Pressure: 29.80 "Hg

Humidity: 63%

Dew Point: 68 °F

Location of WichitaLocation

Past Weather in Wichita — Graph

°F

Wichita Temperature Yesterday

Maximum temperature yesterday: 101 °F (at 2:53 pm)
Minimum temperature yesterday: 78 °F (at 6:53 am)
Average temperature yesterday: 89 °F

High & Low Weather Summary for the Past Weeks

 TemperatureHumidityPressure
High101 °F (Jul 17, 3:53 pm)90% (Jul 10, 5:53 am)30.12 "Hg (Jul 10, 5:53 am)
Low65 °F (Jul 12, 4:53 am)32% (Jul 17, 5:53 pm)29.69 "Hg (Jul 18, 5:53 pm)
Average83 °F63%29.91 "Hg
* Reported Jul 5 11:53 pm — Jul 20 11:53 pm, Wichita. Weather by CustomWeather, © 2019

Note: Actual official high and low records may vary slightly from our data, if they occured in-between our weather recording intervals... More about our weather records

Advertising

Wichita Weather History for the Previous 24 Hours

Scroll right to see more
 ConditionsComfort  
Time TempWeatherWind HumidityBarometerVisibility
11:53 pm
Sat, Jul 20
85 °FClear.14 mph55%29.80 "Hg10 mi
10:53 pm86 °FClear.14 mph51%29.80 "Hg10 mi
9:53 pm88 °FClear.14 mph48%29.76 "Hg10 mi
8:53 pm90 °FPassing clouds.13 mph45%29.75 "Hg10 mi
7:53 pm95 °FPassing clouds.14 mph37%29.74 "Hg10 mi
6:53 pm98 °FPassing clouds.21 mph34%29.72 "Hg10 mi
5:53 pm100 °FSunny.20 mph34%29.72 "Hg10 mi
4:53 pm100 °FSunny.21 mph34%29.72 "Hg10 mi
3:53 pm101 °FSunny.25 mph34%29.72 "Hg10 mi
2:53 pm101 °FSunny.23 mph36%29.72 "Hg10 mi
1:53 pm99 °FSunny.21 mph38%29.75 "Hg10 mi
12:53 pm97 °FSunny.21 mph39%29.76 "Hg10 mi
11:53 am94 °FSunny.17 mph43%29.76 "Hg10 mi
10:53 am90 °FSunny.20 mph48%29.77 "Hg10 mi
9:53 am87 °FSunny.22 mph55%29.77 "Hg10 mi
8:53 am83 °FPassing clouds.23 mph63%29.78 "Hg10 mi
7:53 am81 °FPassing clouds.21 mph65%29.77 "Hg10 mi
6:53 am78 °FPassing clouds.16 mph71%29.77 "Hg10 mi
5:53 am79 °FClear.16 mph69%29.76 "Hg10 mi
4:53 am79 °FClear.15 mph69%29.76 "Hg10 mi
3:53 am79 °FClear.13 mph69%29.76 "Hg10 mi
2:53 am81 °FClear.15 mph65%29.77 "Hg10 mi
1:53 am82 °FClear.16 mph56%29.77 "Hg10 mi
Weather by CustomWeather, © 2019

See weather overview